Flag for Germany Weather past 2 weeks in Viersen, North Rhine-Westphalia, Germany

Now
64 °F

Passing clouds.


Feels Like: 64 °F
Forecast: 54 / 69 °F
Wind: 5 mph from West

Location: Monchengladbach Airport

Current Time: Oct 1, 2014 at 12:32:52 PM

Latest Report: Oct 1, 2014 at 11:50 AM


Visibility: 4 mi

Pressure: 30.33 "Hg

Humidity: 78%

Dew point: 57 °F

Location of ViersenLocation

Historic Weather in Viersen — Graph

°F

Viersen temperature yesterday

Maximum temperature yesterday: 70 °F (at 5:20 PM)
Minimum temperature yesterday: 59 °F (at 7:50 AM)
Average temperature yesterday: 65 °F

Past Weeks' High & Low Weather Summary

 TemperatureHumidityPressure
High77 °F (Sep 17, 3:20 PM)100% (Sep 17, 7:50 AM)30.39 "Hg (Sep 17, 7:50 AM)
Low46 °F (Sep 23, 7:50 AM)47% (Sep 17, 5:50 PM)29.80 "Hg (Sep 18, 7:50 PM)
Average63 °F77%30.07 "Hg
* Reported Sep 16 11:20 AM — Oct 1 11:20 AM, Viersen, Weather by CustomWeather, © 2014

Note: Actual official high and low records may vary slightly from our data, if they occured in-between our weather recording intervals... More about our weather records

Advertising

Viersen weather history for previous 24 hours

 ConditionsComfort  
Time TempWeatherWind HumidityBarometerVisibility
11:20 AM
Oct 1
64 °FFog.3 mph78%30.33 "Hg3 mi
10:50 AM63 °FFog.3 mph83%30.33 "Hg3 mi
10:20 AM63 °FFog.2 mph94%30.30 "Hg3 mi
9:50 AM61 °FFog.2 mph100%30.30 "Hg2 mi
9:20 AM59 °FFog.No wind100%30.30 "Hg2 mi
8:50 AM55 °FFog.1 mph100%30.30 "Hg1 mi
8:20 AM54 °FFog.1 mph100%30.30 "Hg1 mi
7:50 AM54 °FFog.2 mph100%30.30 "Hg0 mi
7:50 PM
Sep 30
59 °FClear.1 mph94%30.27 "Hg10 mi
7:20 PM61 °FClear.No wind83%30.27 "Hg10 mi
6:50 PM66 °FClear.2 mph68%30.27 "Hg10 mi
6:20 PM68 °FPassing clouds.3 mph69%30.27 "HgN/A
5:50 PM68 °FPassing clouds.3 mph64%30.27 "HgN/A
5:20 PM70 °FPassing clouds.5 mph64%30.27 "HgN/A
4:50 PM68 °FPassing clouds.3 mph69%30.27 "HgN/A
4:20 PM68 °FPassing clouds.3 mph69%30.27 "HgN/A
3:50 PM68 °FPassing clouds.3 mph69%30.27 "HgN/A
3:20 PM68 °FPassing clouds.6 mph69%30.27 "HgN/A
2:50 PM68 °FPassing clouds.5 mph69%30.27 "HgN/A
2:20 PM68 °FPassing clouds.6 mph69%30.27 "Hg6 mi
1:50 PM66 °FPassing clouds.5 mph73%30.27 "HgN/A
1:20 PM66 °FPassing clouds.6 mph73%30.27 "HgN/A
12:50 PM66 °FPassing clouds.6 mph73%30.27 "Hg5 mi
12:20 PM64 °FPassing clouds.5 mph83%30.27 "Hg5 mi
Weather by CustomWeather, © 2014

See weather overviewHow to use our weather pages